Regional Weather Roundup
Issued by NWS

Home | Current Version | Previous Version | Text Only | Print | Product List | Glossary On
Versions: 1 2 3 4 5 6 7 8 9 10 11 12 13 14 15 16 17 18 19 20 21 22 23 24 25 26 27 28 29 30 31 32 33 34 35 36 37 38 39 40 41 42 43 44 45 46 47 48 49 50
000
ASUS43 KLMK 250902
RWRKY
KENTUCKY REGIONAL WEATHER ROUNDUP
NATIONAL WEATHER SERVICE LOUISVILLE KY
500 AM EDT SAT JUN 25 2016

NOTE "FAIR" INDICATES FEW OR NO CLOUDS BELOW 12,000 FEET
WITH NO SIGNIFICANT WEATHER AND/OR OBSTRUCTIONS TO VISIBILITY.

KYZ001>023-026-027-061>063-070>075-251000-
WESTERN AND SOUTH CENTRAL KENTUCKY

CITY           SKY/WX    TMP DP  RH WIND       PRES   REMARKS
PADUCAH        PTCLDY    74  70  87 CALM      30.04S
HENDERSON      CLEAR     68  63  83 CALM      30.05S
OWENSBORO      CLEAR     72  70  93 CALM      30.07R
HOPKINSVILLE   NOT AVBL
BOWLING GREEN  FOG       69  68  96 CALM      30.07S VSB 1/2
GLASGOW        NOT AVBL
$$

KYZ024-025-028>034-038-045-046-053-251000-
NORTH CENTRAL KENTUCKY

CITY           SKY/WX    TMP DP  RH WIND       PRES   REMARKS
LOUISVILLE/SDF PTCLDY    72  68  87 CALM      30.07S
LOUISVILLE/LOU CLEAR     71  67  87 CALM      30.08S
FORT KNOX      CLEAR     67  65  95 NE1       30.07R
$$

KYZ035>037-039>044-047>052-055>060-089>105-251000-
NORTHEAST KENTUCKY

CITY           SKY/WX    TMP DP  RH WIND       PRES   REMARKS
LEXINGTON      PTCLDY    67  64  90 CALM      30.10S FOG
COVINGTON      CLEAR     69  57  65 NE6       30.11S
FRANKFORT      PTCLDY    67  64  90 CALM      30.08S
$$

KYZ054-064>069-076>088-106>120-251000-
SOUTHEAST KENTUCKY

CITY           SKY/WX    TMP DP  RH WIND       PRES   REMARKS
JACKSON        PTCLDY    69  65  86 CALM      30.11S
LONDON         CLEAR     67  64  90 CALM      30.11R
SOMERSET       PTCLDY    64  64 100 CALM      30.10S FOG
MIDDLESBORO    CLOUDY    68  68 100 CALM      30.12R FOG
MONTICELLO     FOG      N/A N/A N/A VRB6      30.11S VSB 1/2
$$





USA.gov is the U.S. government's official web portal to all federal, state and local government web resources and services.